Lid_Strength_Index
-1 -1 -1 -1 -1 -1 -1 -1 -1 -1 -1 -1 -1 -1 -1 -1 -1 1 3 2 1 -1 1 4 4 4 4 4 4 5 10 11 10 10 10 7 9 8 7 8 8 6 7 5 2
-1 -1 -1 -1 -1 -1 -1 -0 -1 -1 -1 -1 -1 -1 -1 -1 1 3 1 -1 -1 -1 4 5 6 5 7 6 6 8 10 9 9 9 9 8 9 8 9 9 8 8 6 4 3
-1 -1 -1 -1 -0 -0 -0 -0 -1 -1 -1 -1 -1 -1 -1 -1 3 4 -1 -1 -1 0 3 4 5 6 7 7 8 8 9 9 9 8 8 8 9 7 9 9 8 8 7 5 4
-1 -1 -1 -0 -0 -0 -0 -0 -0 -1 -1 -1 -1 -1 -1 1 9 3 -1 -1 -1 2 3 5 6 7 8 9 7 10 8 9 7 8 8 9 7 8 8 8 7 7 6 6 4
-1 -1 -1 -0 0 0 0 -0 -0 -1 -1 -1 -1 -1 1 4 5 2 -0 0 3 3 5 6 7 7 9 8 8 10 9 8 8 8 9 8 9 9 9 7 7 6 7 6 5
-1 -1 -1 -0 0 0 0 -0 -0 -1 -1 -1 -1 -1 2 8 2 2 3 3 3 4 5 5 6 6 7 8 9 8 8 8 8 8 8 9 9 9 9 8 8 7 7 7 7
-1 -0 -0 -0 -0 0 0 0 -0 -0 -1 -1 -1 0 4 6 1 2 3 3 3 4 5 4 4 6 7 8 7 8 10 9 8 8 9 8 10 10 8 7 8 8 8 7 7
0 -0 -0 0 -0 -0 -0 0 -0 -0 -1 -1 -1 1 6 2 1 3 3 3 3 3 3 4 4 5 6 7 8 10 11 13 9 8 9 10 13 9 8 9 9 9 8 8 7
1 1 0 0 0 0 -0 -0 -0 -1 -1 -1 1 3 7 1 4 2 3 4 4 4 4 4 4 7 7 10 12 11 14 13 11 8 9 10 12 9 8 9 9 9 8 8 7
1 2 1 0 0 0 0 0 -1 -1 -0 1 2 6 6 6 3 3 3 3 4 5 6 6 8 10 10 12 15 13 13 12 13 10 11 11 11 9 8 9 9 9 9 8 8
1 1 1 1 2 -0 0 1 4 5 3 6 7 7 6 3 2 4 3 4 5 6 9 8 11 12 11 10 10 11 12 13 12 10 11 12 12 11 10 10 10 10 9 9 8
0 0 1 1 1 1 0 4 3 3 7 5 5 6 4 3 6 5 4 7 7 10 8 10 12 9 8 9 10 12 13 13 11 10 12 12 12 10 10 10 9 9 9 8 8
2 2 1 1 1 2 2 3 1 1 7 6 5 6 6 5 7 6 5 7 9 10 10 11 10 8 9 11 11 12 13 13 13 12 12 13 14 12 10 9 9 8 8 8 8
3 3 3 1 2 2 3 0 -0 1 11 9 7 5 5 5 8 4 5 7 9 10 10 10 8 10 11 11 11 13 11 11 12 14 17 13 19 14 11 11 10 9 9 9 8
3 3 3 1 2 3 2 0 -0 3 17 8 7 3 5 8 7 7 5 7 10 10 10 12 11 11 12 11 10 12 10 11 12 14 15 15 17 15 12 12 11 10 9 9 8
4 4 4 2 2 3 2 0 2 13 19 11 8 8 8 8 8 7 7 6 7 9 10 11 9 10 10 10 10 9 11 12 13 14 18 15 16 16 14 12 11 10 9 9 8
4 4 4 4 5 3 2 4 13 18 9 12 11 9 9 10 10 9 10 10 12 14 13 11 11 10 9 12 10 11 13 17 18 19 19 15 16 15 11 11 11 9 9 8 8
5 5 4 4 3 4 3 9 17 13 11 8 9 9 11 9 10 10 11 12 10 11 13 14 16 11 10 10 12 12 12 16 21 20 18 16 18 14 10 10 9 8 9 8 8
4 5 5 4 4 4 8 15 15 12 10 10 10 12 12 10 10 11 11 12 10 10 13 13 13 10 10 10 9 12 14 11 15 19 20 17 14 12 10 10 9 9 9 9 8
6 7 7 2 3 5 12 14 13 10 9 9 13 11 14 12 12 12 12 10 10 9 9 11 14 11 11 10 10 11 10 15 15 21 22 18 17 15 12 10 9 9 9 8 8
6 9 5 2 3 8 14 14 12 8 8 10 12 13 12 12 11 12 12 10 9 10 8 11 12 14 12 13 13 12 13 12 12 15 19 20 17 11 10 10 10 9 9 9 9
6 12 4 2 10 10 12 11 9 9 8 9 9 10 12 12 13 13 12 11 9 9 11 10 11 16 14 12 11 11 12 12 15 17 15 16 15 10 9 9 10 10 9 9 9
8 8 4 3 13 13 10 10 9 10 9 10 11 9 9 12 14 12 12 9 9 9 11 10 14 18 16 13 12 13 12 11 12 14 16 19 16 11 9 9 10 10 10 9 10
7 11 8 6 8 10 11 12 12 8 9 9 9 9 11 12 11 12 12 10 9 9 8 9 14 15 17 16 13 14 14 12 13 16 16 15 13 10 10 10 9 9 9 10 10
6 10 8 12 11 11 10 11 12 11 8 8 10 10 11 13 12 13 11 10 9 8 9 11 15 15 14 14 15 15 15 14 14 13 16 14 13 11 10 10 9 9 8 8 9
8 9 7 10 9 10 10 12 12 10 9 10 11 9 9 11 11 13 11 11 11 10 10 10 15 15 15 13 13 15 14 14 13 13 13 13 13 10 9 9 9 8 8 8 8
5 5 7 9 10 11 11 11 10 9 9 8 8 9 10 9 10 10 9 10 10 10 11 12 14 15 18 14 14 17 16 14 13 12 12 14 11 10 10 10 9 9 9 9 8